Location: *
(22.3500°S, 148.3167°W)
Time: 06:01:36
(UTC+00:00)

Daily predictions for brighter satellites

Satellite Brightness Start Highest point End
(mag) Time Altitude Azimuth Time Altitude Azimuth Time Altitude Azimuth
CZ-3 R/B 4.2 12:22:42 10° NW 13:10:51 63° NNE 13:21:46 10° E
ATLAS 3B R/B 4.0 13:20:09 32° ENE 13:20:09 32° ENE 13:23:37 10° NE
Cosmos 2219 Rocket 4.5 13:30:21 16° NNE 13:30:21 16° NNE 13:31:24 10° NNE
Milstar 3 Cent rocket 3.7 13:26:03 88° WNW 13:26:11 89° NNW 13:34:15 10° ENE
ASC 2 Rocket 4.2 13:56:59 72° SE 13:56:59 72° SE 14:04:53 10° E
Delta 2 Rocket 3.9 14:04:37 79° SSE 14:04:37 79° SSE 14:10:31 10° ESE
USA 215 3.2 14:06:21 10° SE 14:12:58 85° NE 14:15:37 40° NW
Cosmos 1825 Rocket 4.4 14:13:56 48° ENE 14:13:56 48° ENE 14:17:32 10° NNE
Cosmos 1892 4.3 14:15:04 33° E 14:15:04 33° E 14:18:19 10° NNE
Cosmos 2333 Rocket 4.3 14:19:27 13° NNW 14:19:27 13° NNW 14:20:09 10° NNW
Cosmos 676 Rocket 4.1 14:18:37 10° N 14:23:56 77° ENE 14:29:18 10° SSE
CZ-4B R/B 4.3 14:23:12 10° NE 14:27:03 39° ESE 14:30:36 13° S
ADEOS 3.4 14:25:13 10° N 14:30:24 68° WNW 14:30:38 67° W
Cosmos 2237 Rocket 2.5 14:27:42 23° S 14:31:18 65° ESE 14:36:55 10° NNE
H-2A R/B 3.1 14:30:08 10° NNE 14:33:56 65° ESE 14:34:36 53° SSE
DELTA 4 R/B 3.9 14:36:01 11° ESE 14:36:01 11° ESE 14:36:06 10° ESE
YAOGAN 6 3.7 14:30:56 10° NNE 14:34:20 42° ESE 14:35:50 27° SSE
Fermi 4.0 14:35:04 63° SE 14:35:04 63° SE 14:38:51 10° E
ASTEX 1 3.6 14:30:32 10° SSE 14:35:30 71° E 14:40:25 10° N
Cosmos 2058 Rocket 2.9 14:31:25 10° N 14:39:25 17° S 14:40:25 10° S
NOSS 0 Rocket 3.8 14:35:21 41° SW 14:37:31 69° WNW 14:43:36 10° N
DELTA-4 R/B 4.0 14:38:17 24° NNW 14:38:46 25° N 14:41:25 10° ENE
Meteor PRIRODA 4.4 14:35:17 10° NNE 14:38:51 50° ESE 14:40:53 23° S
Lacrosse 5 rocket 4.0 14:40:05 10° SSE 14:41:43 12° SE 14:43:18 10° ESE
Envisat 3.1 14:40:27 10° NNE 14:45:31 78° ESE 14:50:39 10° S
Cosmos 2082 4.0 14:46:06 42° W 14:46:29 43° WSW 14:51:56 10° S
Nadezhda 4 Rocket 4.1 14:40:14 10° S 14:46:37 78° E 14:52:56 10° N
Cosmos 1954 Rocket 4.1 14:46:02 10° NNW 14:51:12 52° WSW 14:56:24 10° S
Cosmos 1825 3.2 14:49:12 10° S 14:52:52 46° E 14:56:29 10° NNE
GPS 2-17 Rocket1 4.3 14:51:50 20° NW 14:54:17 35° NNE 14:58:24 10° E
Cosmos 405 Rocket 4.4 14:51:25 10° SSE 14:55:11 37° E 14:58:57 10° NNE
Stardust Del rocket 3.7 14:56:04 35° NW 14:57:04 50° NNE 15:01:57 10° E
Meteor 2-1 Rocket 4.0 14:53:31 10° NNW 14:58:58 70° W 15:04:31 10° S
COSMOS 2428 4.4 15:02:28 15° NW 15:02:28 15° NW 15:04:09 10° NW
Cosmos 1408 2.5 15:00:08 37° SW 15:01:17 57° W 15:04:48 10° N
IRAS Rocket 4.1 14:59:14 10° S 15:04:45 72° WSW 15:10:14 10° NNW
ATLAS 3B R/B 4.0 15:07:29 17° WNW 15:07:29 17° WNW 15:11:25 10° NNW
Cosmos 839 Rocket 4.0 15:04:12 10° NNW 15:11:09 69° WSW 15:17:18 10° SSE
Cosmos 1850 Rocket 4.1 15:09:14 10° N 15:14:31 84° ENE 15:19:49 10° SSE
SL-24 R/B 4.5 15:11:02 10° SSW 15:14:37 31° WSW 15:17:55 10° NW
MOS 1 Rocket 3.7 15:10:57 10° SSE 15:16:27 87° E 15:21:50 10° N
Delta 2 Rocket 4.3 15:15:14 10° NW 15:18:23 37° NE 15:21:48 10° ESE
ATLAS 3B CENTAUR R/B 1.6 15:15:29 21° W 15:18:51 58° NNW 15:21:53 10° NE
Cosmos 1356 3.3 15:17:37 10° SSW 15:21:02 71° W 15:24:26 10° N
Delta 7925 Rocket 3.4 15:17:53 20° W 15:21:30 72° NNW 15:26:10 10° ENE
Cosmos 1741 Rocket 3.9 15:19:17 10° NNW 15:24:31 81° WSW 15:29:51 10° SSE
GPS 2-04 Rocket1 2.4 15:22:36 20° W 15:24:42 55° SSW 15:28:02 10° SE
NOAA 12 4.3 15:21:20 10° NNE 15:26:38 78° ESE 15:32:00 10° S
CZ-4C R/B 2.8 15:23:36 10° S 15:27:05 70° WSW 15:30:25 10° NNW
Cosmos 2263 Rocket 2.2 15:22:13 10° NNW 15:27:50 64° WSW 15:33:30 10° S
ASTRO E2 4.2 15:28:22 13° SW 15:31:08 26° S 15:34:29 10° ESE
Aureole 3 3.0 15:37:02 10° NNW 15:39:55 44° W 15:43:11 10° S
PAYLOAD B 4.4 15:34:31 10° NNE 15:40:06 83° ESE 15:45:46 10° S
Delta 198 3.6 15:36:07 10° WNW 15:40:17 61° NNE 15:44:01 10° E
CZ-4B R/B 4.1 15:35:07 10° NNE 15:40:34 54° ESE 15:46:00 10° S
Cosmos 1634 Rocket 4.4 15:36:33 10° NNW 15:42:22 40° W 15:48:18 10° SSW
Cosmos 1812 Rocket 3.8 15:38:19 10° NNW 15:42:27 46° W 15:46:40 10° S
SL-16 R/B 2.2 15:38:19 10° SSW 15:44:02 85° WNW 15:49:44 10° NNE
NOSS 3-1 (C) 4.0 15:40:40 10° SSW 15:46:08 49° ESE 15:51:01 10° NE
NOAA 11 4.3 15:46:32 10° N 15:51:52 58° W 15:57:15 10° SSW
Longmarch 3A Rocket 3.6 15:55:41 10° W 16:16:42 63° S 16:20:39 10° E
